When you browse on this site, cookies collect data to enhance your experience and personalize the content and advertising you see.
Visit our Privacy Policy to learn more. By continuing to use the site, you agree to this use of cookies and data.
  • In Sweden
  • List of Countries
  • For 7 days
  • Water Temperature
  • Satellite Maps
  • Weather Map
  • Weather Widgets
  • user-avatar
    Login

    Hourly Weather Dromore

    Today, 18 November, Sunday

    Time Temperature Precipitation Wind Pressure Humidity
    00:00 +6°C° 0 mm 7 mps 760 mmHg 78%
    01:00 +6°C° 0 mm 7 mps 760 mmHg 78%
    02:00 +6°C° 0 mm 7 mps 760 mmHg 78%
    03:00 +6°C° 0 mm 7 mps 760 mmHg 78%
    04:00 +6°C° 0 mm 7 mps 760 mmHg 79%
    05:00 +6°C° 0 mm 7 mps 760 mmHg 80%
    06:00 +5°C° 0 mm 7 mps 761 mmHg 81%
    07:00 +6°C° 0 mm 7 mps 761 mmHg 80%
    08:00 +7°C° 0 mm 6 mps 761 mmHg 80%
    09:00 +7°C° 0 mm 6 mps 761 mmHg 80%
    10:00 +8°C° 0 mm 6 mps 762 mmHg 77%
    11:00 +9°C° 0 mm 6 mps 762 mmHg 74%
    12:00 +9°C° 0 mm 6 mps 762 mmHg 71%
    13:00 +9°C° 0 mm 6 mps 762 mmHg 72%
    14:00 +9°C° 0 mm 6 mps 762 mmHg 73%
    15:00 +9°C° 0 mm 6 mps 761 mmHg 75%
    16:00 +8°C° 0 mm 6 mps 761 mmHg 77%
    17:00 +7°C° 0 mm 6 mps 762 mmHg 78%
    18:00 +7°C° 0 mm 6 mps 762 mmHg 80%
    19:00 +7°C° 0 mm 6 mps 762 mmHg 80%
    20:00 +7°C° 0 mm 6 mps 762 mmHg 81%
    21:00 +7°C° 0 mm 6 mps 762 mmHg 81%
    22:00 +7°C° 0 mm 6 mps 762 mmHg 80%
    23:00 +5°C° 0 mm 6 mps 762 mmHg 80%

    Tomorrow, 19 November, Monday

    Time Temperature Precipitation Wind Pressure Humidity
    00:00 +5°C° 0 mm 6 mps 761 mmHg 79%
    01:00 +5°C° 0 mm 6 mps 761 mmHg 80%
    02:00 +5°C° 0 mm 6 mps 761 mmHg 81%
    03:00 +5°C° 0 mm 6 mps 761 mmHg 82%
    04:00 +5°C° 0 mm 6 mps 760 mmHg 84%
    05:00 +5°C° 0 mm 6 mps 760 mmHg 86%
    06:00 +5°C° 0 mm 6 mps 760 mmHg 88%
    07:00 +5°C° 0 mm 6 mps 760 mmHg 88%
    08:00 +5°C° 0 mm 6 mps 760 mmHg 87%
    09:00 +7°C° 0 mm 6 mps 760 mmHg 86%
    10:00 +7°C° 0 mm 6 mps 760 mmHg 84%
    11:00 +6°C° 0 mm 7 mps 760 mmHg 81%
    12:00 +6°C° 0 mm 7 mps 760 mmHg 78%
    13:00 +6°C° 0 mm 7 mps 760 mmHg 78%
    14:00 +7°C° 0 mm 6 mps 759 mmHg 77%
    15:00 +7°C° 0 mm 6 mps 759 mmHg 77%
    16:00 +7°C° 0 mm 6 mps 759 mmHg 77%
    17:00 +6°C° 0 mm 7 mps 759 mmHg 76%
    18:00 +5°C° 0 mm 7 mps 759 mmHg 76%
    19:00 +5°C° 0 mm 7 mps 759 mmHg 76%
    20:00 +5°C° 0 mm 7 mps 759 mmHg 76%
    21:00 +5°C° 0 mm 7 mps 759 mmHg 76%
    22:00 +5°C° 0 mm 7 mps 758 mmHg 77%
    23:00 +4°C° 0 mm 7 mps 758 mmHg 77%

    Day after tomorrow, 20 November, Tuesday

    Time Temperature Precipitation Wind Pressure Humidity
    00:00 +4°C° 0 mm 7 mps 758 mmHg 77%
    01:00 +4°C° 0.1 mm 7 mps 757 mmHg 77%
    02:00 +4°C° 0.1 mm 7 mps 757 mmHg 76%
    03:00 +4°C° 0.1 mm 7 mps 757 mmHg 76%
    04:00 +4°C° 0.1 mm 8 mps 756 mmHg 77%
    05:00 +4°C° 0.1 mm 8 mps 756 mmHg 78%
    06:00 +4°C° 0.1 mm 8 mps 756 mmHg 79%
    07:00 +4°C° 0 mm 8 mps 756 mmHg 80%
    08:00 +4°C° 0 mm 8 mps 755 mmHg 80%
    09:00 +4°C° 0 mm 8 mps 755 mmHg 80%
    10:00 +4°C° 0 mm 8 mps 755 mmHg 77%
    11:00 +5°C° 0 mm 9 mps 754 mmHg 75%
    12:00 +5°C° 0 mm 9 mps 754 mmHg 72%
    13:00 +5°C° 0.1 mm 9 mps 753 mmHg 72%
    14:00 +5°C° 0.1 mm 9 mps 753 mmHg 72%
    15:00 +5°C° 0.1 mm 9 mps 752 mmHg 72%
    16:00 +5°C° 0.2 mm 9 mps 752 mmHg 73%
    17:00 +3°C° 0.2 mm 9 mps 751 mmHg 75%
    18:00 +3°C° 0.2 mm 9 mps 751 mmHg 76%
    19:00 +3°C° 0.3 mm 9 mps 751 mmHg 76%
    20:00 +3°C° 0.3 mm 9 mps 751 mmHg 77%
    21:00 +3°C° 0.3 mm 9 mps 750 mmHg 77%
    22:00 +3°C° 0.2 mm 9 mps 750 mmHg 78%
    23:00 +3°C° 0.2 mm 9 mps 750 mmHg 78%

    21 November, Wednesday

    Time Temperature Precipitation Wind Pressure Humidity
    00:00 +3°C° 0.2 mm 9 mps 749 mmHg 78%
    01:00 +3°C° 0.3 mm 9 mps 749 mmHg 78%
    02:00 +3°C° 0.3 mm 10 mps 748 mmHg 79%
    03:00 +3°C° 0.3 mm 10 mps 748 mmHg 79%
    04:00 +3°C° 1 mm 10 mps 747 mmHg 81%
    05:00 +3°C° 1 mm 9 mps 747 mmHg 83%
    06:00 +5°C° 1 mm 9 mps 746 mmHg 85%
    07:00 +3°C° 0.8 mm 9 mps 747 mmHg 85%
    08:00 +4°C° 0.8 mm 8 mps 747 mmHg 85%
    09:00 +4°C° 0.8 mm 8 mps 747 mmHg 84%
    10:00 +4°C° 0.5 mm 8 mps 747 mmHg 82%
    11:00 +3°C° 0.5 mm 9 mps 747 mmHg 79%
    12:00 +3°C° 0.5 mm 9 mps 748 mmHg 76%
    13:00 +3°C° 0.2 mm 9 mps 748 mmHg 77%
    14:00 +4°C° 0.2 mm 8 mps 748 mmHg 77%
    15:00 +4°C° 0.2 mm 8 mps 749 mmHg 78%
    16:00 +4°C° 0 mm 7 mps 749 mmHg 79%
    17:00 +3°C° 0 mm 7 mps 750 mmHg 80%
    18:00 +3°C° 0 mm 7 mps 750 mmHg 81%
    19:00 +3°C° 0 mm 6 mps 751 mmHg 82%
    20:00 +3°C° 0 mm 6 mps 752 mmHg 83%
    21:00 +3°C° 0 mm 6 mps 752 mmHg 84%
    22:00 +3°C° 0 mm 5 mps 752 mmHg 84%
    23:00 +3°C° 0 mm 5 mps 753 mmHg 84%

    22 November, Thursday

    Time Temperature Precipitation Wind Pressure Humidity
    00:00 +3°C° 0 mm 5 mps 753 mmHg 85%
    01:00 +3°C° 0.1 mm 5 mps 753 mmHg 86%
    02:00 +3°C° 0.1 mm 5 mps 753 mmHg 88%
    03:00 +3°C° 0.1 mm 5 mps 753 mmHg 89%
    04:00 +5°C° 0.2 mm 5 mps 753 mmHg 90%
    05:00 +5°C° 0.2 mm 5 mps 753 mmHg 90%
    06:00 +5°C° 0.2 mm 5 mps 753 mmHg 91%
    07:00 +5°C° 0.2 mm 6 mps 754 mmHg 91%
    08:00 +5°C° 0.2 mm 6 mps 754 mmHg 90%
    09:00 +5°C° 0.2 mm 6 mps 754 mmHg 90%
    10:00 +5°C° 0.3 mm 6 mps 754 mmHg 89%
    11:00 +6°C° 0.3 mm 7 mps 754 mmHg 89%
    12:00 +6°C° 0.3 mm 7 mps 755 mmHg 88%
    13:00 +6°C° 0.2 mm 7 mps 754 mmHg 88%
    14:00 +6°C° 0.2 mm 7 mps 754 mmHg 88%
    15:00 +6°C° 0.2 mm 7 mps 754 mmHg 87%
    16:00 +6°C° 0.2 mm 8 mps 754 mmHg 87%
    17:00 +5°C° 0.2 mm 8 mps 754 mmHg 87%
    18:00 +5°C° 0.2 mm 8 mps 754 mmHg 88%
    19:00 +5°C° 0.2 mm 8 mps 754 mmHg 87%
    20:00 +5°C° 0.2 mm 8 mps 754 mmHg 87%
    21:00 +5°C° 0.2 mm 8 mps 754 mmHg 87%
    22:00 +5°C° 0.3 mm 8 mps 754 mmHg 87%
    23:00 +5°C° 0.3 mm 8 mps 754 mmHg 88%

    23 November, Friday

    Time Temperature Precipitation Wind Pressure Humidity
    00:00 +5°C° 0.3 mm 8 mps 754 mmHg 88%
    01:00 +5°C° 0.4 mm 7 mps 754 mmHg 88%
    02:00 +5°C° 0.4 mm 7 mps 754 mmHg 89%
    03:00 +5°C° 0.4 mm 7 mps 754 mmHg 89%
    04:00 +5°C° 0.4 mm 7 mps 754 mmHg 89%
    05:00 +5°C° 0.4 mm 7 mps 754 mmHg 89%
    06:00 +5°C° 0.4 mm 7 mps 754 mmHg 90%
    07:00 +5°C° 0.5 mm 7 mps 755 mmHg 90%
    08:00 +5°C° 0.5 mm 7 mps 755 mmHg 90%
    09:00 +5°C° 0.5 mm 7 mps 755 mmHg 89%
    10:00 +5°C° 0.4 mm 6 mps 755 mmHg 89%
    11:00 +7°C° 0.4 mm 6 mps 755 mmHg 88%
    12:00 +7°C° 0.4 mm 6 mps 755 mmHg 88%
    13:00 +7°C° 0.3 mm 6 mps 755 mmHg 89%
    14:00 +7°C° 0.3 mm 6 mps 755 mmHg 89%
    15:00 +7°C° 0.3 mm 5 mps 754 mmHg 90%
    16:00 +6°C° 0.4 mm 5 mps 755 mmHg 90%
    17:00 +6°C° 0.4 mm 5 mps 755 mmHg 90%
    18:00 +5°C° 0.4 mm 6 mps 755 mmHg 90%
    19:00 +6°C° 0.3 mm 5 mps 755 mmHg 90%
    20:00 +6°C° 0.3 mm 5 mps 755 mmHg 90%
    21:00 +6°C° 0.3 mm 5 mps 755 mmHg 90%
    22:00 +6°C° 0.2 mm 5 mps 755 mmHg 90%
    23:00 +6°C° 0.2 mm 5 mps 755 mmHg 90%
    Show more